Regional Weather Roundup
Issued by NWS

Home | Current Version | Previous Version | Text Only | Print | Product List | Glossary Off
Versions: 1 2 3 4 5 6 7 8 9 10 11 12 13 14 15 16 17 18 19 20 21 22 23 24 25 26 27

000
ASUS45 KBOU 181407
RWRCO

WEATHER ROUNDUP FOR COLORADO
NATIONAL WEATHER SERVICE DENVER/BOULDER CO
800 AM MDT MON SEP 18 2017

NOTE: "FAIR" INDICATES FEW OR NO CLOUDS BELOW 12000 FEET WITH NO
SIGNIFICANT WEATHER AND/OR OBSTRUCTIONS TO VISIBILITY.

COZ001>005-013-030-031-181500-
...NORTHWEST COLORADO...

CITY           SKY/WX    TMP DP  RH WIND       PRES   REMARKS
CRAIG          FAIR      40  37  89 SW3       30.14S
HAYDEN         FAIR      43  36  76 E16       30.17S
MEEKER         FAIR      43  37  79 CALM      30.17S
RABBIT EARS PA FAIR      39  30  70 SW5       30.33S
STEAMBOAT SPGS FAIR      38  36  92 CALM      30.18S
WALDEN         FAIR      39  32  75 SE6       30.23S
$$

COZ006>008-011-181500-
...WEST CENTRAL VALLEYS...

CITY           SKY/WX    TMP DP  RH WIND       PRES   REMARKS
GRAND JUNCTION FAIR      57  41  55 E15       30.09R
MONTROSE       FAIR      49  43  80 S6        30.18R
EAGLE          FAIR      43  34  70 CALM      30.24S
RIFLE          FAIR      47  39  74 CALM      30.15S
DELTA          FAIR      52  40  64 MISG      30.15S
NUCLA          NOT AVBL
$$

COZ017>023-064>068-181500-
...SOUTHWEST COLORADO...

CITY           SKY/WX    TMP DP  RH WIND       PRES   REMARKS
DURANGO        FAIR      44  40  85 CALM      30.22R
CORTEZ         FAIR      44  42  93 CALM      30.17R
PAGOSA SPRINGS FAIR      43  42  97 CALM      30.28R
TELLURIDE      FAIR      43  37  77 CALM      30.35R
WOLF CREEK PAS FAIR      36  32  87 S6        30.52R
$$

COZ009-010-012-014-032>034-037-058>063-181500-
...CENTRAL COLORADO...

CITY           SKY/WX    TMP DP  RH WIND       PRES   REMARKS
ASPEN          FAIR      44  37  76 SW5       30.25R
BUENA VISTA    FAIR      40  37  86 CALM      30.29S
COPPER MTN     FAIR      37  28  70 SW7       30.44R
BERTHOUD PASS  FAIR      32  23  69 NW23G32   30.43R WCI  19
COTTONWOOD PAS FAIR      45  32  61 CALM      30.35S
GUNNISON       FAIR      37  36  93 CALM      30.32S FOG
KREMMLING      FAIR      41  36  81 CALM      30.27R
LEADVILLE      FAIR      34  32  92 CALM      30.34R
MONARCH PASS   FAIR      32  32 100 SW22      30.54R WCI  19
SALIDA         FAIR      45  38  77 CALM      30.34S
SUNLIGHT       FAIR      36  30  80 SW10      30.40S
WILKERSON PASS FAIR      36  30  80 SW8       30.43R
$$

COZ069>075-181500-
...SAN LUIS VALLEY/SANGRE DE CRISTO MOUNTAINS...

CITY           SKY/WX    TMP DP  RH WIND       PRES   REMARKS
ALAMOSA        FAIR      38  38 100 SE3       30.29R
DEL NORTE      FAIR      43  36  76 W9        30.31R
LA VETA PASS   FAIR      39  37  93 SW12G20   30.49R
SAGUACHE       FAIR      41  37  87 NW7       30.31S
$$

COZ035-036-038>040-181500-
...NORTHERN COLORADO FRONT RANGE...

CITY           SKY/WX    TMP DP  RH WIND       PRES   REMARKS
DENVER INTL AP FAIR      56  42  59 SW10      30.09R
DMNS CITY PARK   N/A     58  43  56 E8        30.11R
AURORA         MOSUNNY   55  41  60 SW7       30.12R
FRONT RANGE AP SUNNY     57  43  58 SW10      30.10S
ERIE MUNI ARPT FAIR      51  46  83 SW6       30.14S
BOULDER MUN AP FAIR      54  45  71 CALM      30.08S
CENTENNIAL     FAIR      54  42  64 E5        30.12R
BROOMFIELD     MOSUNNY   57  37  47 CALM      30.11R
FORT COLLINS   FAIR      52  49  89 CALM      30.08S
LONGMONT       FAIR      52  46  81 CALM      30.10S HAZE
$$

COZ041-046-047-076>085-087-088-181500-
...PIKES PEAK/PALMER DIVIDE AND SOUTHERN FOOTHILLS...

CITY           SKY/WX    TMP DP  RH WIND       PRES   REMARKS
COLO. SPRINGS  FAIR      58  39  49 NW8       30.15S
A. F. ACADEMY  FAIR      56  34  43 N8        30.16S
SCHRIEVER AFB  FAIR      60  33  37 W8        30.15S
CHEYENNE MTN   NOT AVBL
ELLICOTT       NOT AVBL
FALCON         FAIR      59  32  35 W12G21    30.18S
FORT CARSON    FAIR      56  40  55 N6        30.12R
LIMON            N/A    N/A N/A N/A MISG      30.10R
MONUMENT HILL  FAIR      52  36  54 W7        30.19S
CANON CITY     SUNNY     59  43  55 W9        30.13R
WALSENBURG     FAIR      59  41  51 SW12G18   30.15S
TRINIDAD       FAIR      56  51  84 W13       30.15R
$$

COZ042>045-048>051-090-091-181500-
...NORTHEAST COLORADO...

CITY           SKY/WX    TMP DP  RH WIND       PRES   REMARKS
GREELEY ARPT   FAIR      52  47  83 CALM      30.08R
AKRON          PTSUNNY   52  51  97 W12       30.05S FOG
BURLINGTON     FAIR      52  51  97 W7        30.03S
WRAY           CLOUDY    55  54  94 W8        30.03R FOG
YUMA           PTSUNNY   50  50 100 W5        30.03S
STERLING       FOG       52  52 100 SW7       30.02S VSB<1/4
HOLYOKE        CLOUDY    55  54  94 W9        30.01F FOG
FORT MORGAN    FOG       48  47  94 W8        30.06R VSB 1/4
$$

COZ086-089-092>099-181500-
...SOUTHEAST COLORADO...

CITY           SKY/WX    TMP DP  RH WIND       PRES   REMARKS
PUEBLO         FAIR      58  41  53 SW5       30.09R
LA JUNTA       FAIR      59  46  62 W12       30.06S
LAMAR          FAIR      57  52  83 S7        30.02S
SPRINGFIELD      N/A     60  57  89 SW12      30.08R
$$




USA.gov is the U.S. government's official web portal to all federal, state and local government web resources and services.